STARLINK-1295

decayed
NORAD ID: 45373 Int'l Des: 2020-019 Owner: SPXS Country: US Constellation: starlink
LEOCIRCULAR
グループ

STARLINK-1295について

説明を読み込み中...

高度履歴

Altitude vs Time

uPlot chart will show altitude changes over time

軌道要素

1 45373U 20019P 25109.61359108 .07801254 12440-4 50121-3 0 9998
2 45373 53.0336 133.4396 0004960 307.5897 147.2283 16.40992213281556
Epoch: Apr 19, 2025 • Age: 3577 hours

現在のステータス

Position data unavailable
打ち上げ日 Mar 18, 2020
運用期間 5.4 years
落下予定日 Apr 19, 2025
タイプ internet

技術仕様

分類 Payload
質量 260.00 kg
乾燥質量 248.00 kg
総質量 260.00 kg
長さ 0.20 m
直径 2.80 m
スパン 9.00 m
形状 Box + pan
製造者 SPXS
バスタイプ Starlink
フェーズステータス Unknown Transfer Status
所有者/国 SPXS/US

大規模コンステレーション

Loading constellations...